{"data":{"norad_id":56834,"intl_designator":"2023-079M","name":"STARLINK-30069","alt_names":[],"object_type":"PAYLOAD","status":"ACTIVE","operator":null,"country":"US","launch_date":"2023-06-04","launch_site_code":"AFETR","launch_vehicle":null,"mission":null,"orbit_class":"UNKNOWN","rcs_meters":null,"size_class":null,"mass_kg":null,"dimensions":null,"purposes":["comms"],"wikipedia_slug":null,"has_3d_model":false,"image_url":null,"decayed_at":null,"tle_current":{"epoch":"2026-09-19T19:02:10.813344Z","epoch_age_seconds":178690,"freshness":"STALE","line1":"1 56834U 23079M   26262.79318071  .00000151  00000+0  15011-4 0  9999","line2":"2 56834  43.0028  87.4615 0001631 264.5708  95.4958 15.27577843182616","mean_motion":15.27577843,"eccentricity":0.0001631,"inclination_deg":43.0028,"raan_deg":87.4615,"arg_perigee_deg":264.5708,"mean_anomaly_deg":95.4958,"bstar":1.5011e-5,"rev_number":18261,"period_min":94.266881822009,"perigee_km":481.93649437553,"apogee_km":484.17461538693,"semimajor_km":6861.1925548812,"source":"CELESTRAK","updated_at":"2026-09-21T09:00:33.516619Z"}}}